Location: Malvern Link
(52.1333°N, 2.3000°W)
Time: 08:42:27
(UTC+00:00)

Cosmos 1634 Rocket - Pass Details

Date: 09 December 2021
Orbit: 959 x 993 km, 82.9° (Epoch: 24 January)

Event Time Altitude Azimuth Distance (km) Brightness Sun altitude
Exits shadow 04:34:53 23° 177° (S) 1,935 5.5 -31.0°
Drops below altitude 10° 04:37:00 10° 176° (S) 2,705 6.3 -30.7°
Sets 04:39:28 0° 176° (S) 3,644 7.0 -30.3°
